Location: Home
(42.5358°N, 72.7383°W)
Time: 14:43:12
(UTC-05:00)

deb Explorer IX - Pass Details

Date: 04 December 2021
Orbit: 544 x 1082 km, 38.8° (Epoch: 16 January)

Event Time Altitude Azimuth Distance (km) Brightness Sun altitude
Rises 10:04:13 0° 237° (WSW) 3,082 ? 21.4°
Reaches altitude 10° 10:06:55 10° 228° (SW) 2,077 ? 21.6°
Maximum altitude 10:11:12 34° 163° (SSE) 998 ? 21.9°
Drops below altitude 10° 10:15:05 10° 98° (E) 1,871 ? 22.2°
Sets 10:17:23 0° 89° (E) 2,731 ? 22.3°
